Content
SEND FEEDBACK

Daily
Averages
Monthly
Summary
Netherlands

HAARLEM, NETHERLANDS


Home > Europe > Netherlands
Elevation: 62 feet     Latitude: 52 28N     Longitude: 004 35E

WEATHER
 
SELECT A DAY
Number of Records: 301,990;   Date Range: 7/1/96 - 7/23/14
 
SHARE

PRINT THIS DATA

[ ← Previous Day ]
WEATHER ALMANAC - JANUARY 24, 2013
[ Next Day → ]
[ °C ]   °F
Weather ElementAverageHighLow
Temperature26 °F31 °F (4:00 pm)18 °F (10:00 am)
Dewpoint21 °F23 °F (10:55 am)17 °F (10:00 am)
Humidity81.1 %100 % (8:25 am)52 % (1:00 pm)
Barometer30.02 in30.15 in (10:00 pm)29.89 in (12:55 am)
Wind Speed5.9 mph12.7 mph (1:55 am)
Weather ElementAverage
Visibility6.1 mi
Wind DirectionENE (63.9 °)

Weather ElementTotal
Precipitation---
Heating Degree Days40.5 (Base 65)
Averaged from 55 records on January 24, 2013
WEATHER CONDITIONS BREAKOUT
WIND DIRECTION BREAKOUT
WEATHER BY HOUR - JANUARY 24, 2013
[ °C ]   °F
Local TimeTemperatureDewpointHumidityBarometerVisibilityWind DirectionWind SpeedGust SpeedPrecipitationEventsConditions
12:55 AM26.6 °F21.2 °F80 %29.89 in6.2 miENE (60°)10.4 mphOvercast
1:00 AM27.0 °F21.0 °F70 %29.91 in7.0 miENE (70°)11.2 mphPartly Cloudy
1:25 AM26.6 °F21.2 °F80 %29.89 in6.2 miENE (70°)11.5 mphMostly Cloudy
1:55 AM26.6 °F21.2 °F80 %29.89 in6.2 miENE (70°)12.7 mphMostly Cloudy
2:25 AM24.8 °F21.2 °F86 %29.89 inENE (70°)10.4 mphClear
2:55 AM24.8 °F21.2 °F86 %29.89 inENE (70°)10.4 mphClear
3:25 AM24.8 °F21.2 °F86 %29.89 in5.6 miENE (70°)9.2 mph
3:55 AM23.0 °F21.2 °F93 %29.89 in5.0 miENE (60°)9.2 mphPartly Cloudy
4:00 AM23.0 °F20.0 °F85 %29.92 in4.0 miENE (60°)8.9 mphMist
4:25 AM23.0 °F21.2 °F93 %29.92 in4.3 miENE (60°)9.2 mphPartly Cloudy
4:55 AM23.0 °F21.2 °F93 %29.92 in3.7 miENE (60°)11.5 mphPartly Cloudy
5:25 AM23.0 °F21.2 °F93 %29.92 in3.7 miENE (70°)9.2 mphMostly Cloudy
5:55 AM21.2 °F19.4 °F93 %29.95 in3.1 miENE (70°)5.8 mphMostly Cloudy
6:25 AM23.0 °F21.2 °F93 %29.95 in3.1 miEast (80°)9.2 mphMostly Cloudy
6:55 AM23.0 °F21.2 °F93 %29.95 in3.1 miEast (80°)4.6 mphPartly Cloudy
7:00 AM22.0 °F20.0 °F91 %29.98 in3.0 miEast (80°)4.5 mphMist
7:25 AM21.2 °F19.4 °F93 %29.98 in3.7 miNE (50°)4.6 mphScattered Clouds
7:55 AM21.2 °F19.4 °F93 %29.98 in0.9 miNE (50°)5.8 mphPartly Cloudy
8:25 AM21.2 °F21.2 °F100 %29.98 in0.6 miNE (50°)2.3 mphPartly Cloudy
8:55 AM21.2 °F21.2 °F100 %29.98 in3.1 miCalmFogPatches of Fog
9:25 AM21.2 °F19.4 °F93 %30.01 in3.7 miVariable2.3 mphFogPatches of Fog
9:55 AM19.4 °F17.6 °F93 %30.01 in3.7 miSSE (160°)3.5 mphFogPatches of Fog
10:00 AM18.0 °F17.0 °F92 %30.01 in4.0 miSSE (160°)4.5 mphFogFog
10:25 AM21.2 °F19.4 °F93 %30.01 in4.3 miVariable1.2 mphScattered Clouds
10:55 AM24.8 °F23.0 °F93 %30.01 in5.0 miNNE (30°)2.3 mphScattered Clouds
11:25 AM28.4 °F23.0 °F80 %30.04 in5.6 miVariable2.3 mphScattered Clouds
11:55 AM28.4 °F23.0 °F80 %30.04 in6.2 miWNW (300°)3.5 mphMostly Cloudy
12:25 PM30.2 °F23.0 °F75 %30.04 in6.2 miVariable2.3 mphMostly Cloudy
12:55 PM30.2 °F19.4 °F64 %30.04 in6.2 miENE (60°)9.2 mphMostly Cloudy
1:00 PM30.0 °F19.0 °F52 %30.04 in25.0 miENE (60°)8.9 mphPartly Cloudy
1:25 PM30.2 °F19.4 °F64 %30.04 in6.2 miENE (70°)9.2 mphMostly Cloudy
1:55 PM30.2 °F19.4 °F64 %30.04 in6.2 miENE (70°)9.2 mphMostly Cloudy
2:25 PM30.2 °F19.4 °F64 %30.04 in6.2 miENE (60°)8.1 mphMostly Cloudy
2:55 PM30.2 °F21.2 °F69 %30.04 in6.2 miENE (70°)8.1 mphMostly Cloudy
3:25 PM30.2 °F21.2 °F69 %30.04 in6.2 miENE (60°)6.9 mphMostly Cloudy
3:55 PM30.2 °F21.2 °F69 %30.04 in6.2 miNE (50°)6.9 mphMostly Cloudy
4:00 PM31.0 °F20.0 °F53 %30.07 in19.0 miNNE (30°)6.7 mphOvercast
4:25 PM30.2 °F21.2 °F69 %30.06 in6.2 miNE (40°)6.9 mphMostly Cloudy
4:55 PM30.2 °F21.2 °F69 %30.06 in6.2 miNE (40°)6.9 mphMostly Cloudy
5:25 PM30.2 °F21.2 °F69 %30.06 in6.2 miNE (50°)8.1 mphMostly Cloudy
5:55 PM30.2 °F23.0 °F75 %30.06 in6.2 miENE (60°)6.9 mphMostly Cloudy
6:25 PM30.2 °F23.0 °F75 %30.09 in6.2 miNE (40°)5.8 mphMostly Cloudy
6:55 PM30.2 °F23.0 °F75 %30.09 in6.2 miNNE (30°)5.8 mphMostly Cloudy
7:00 PM29.0 °F23.0 °F69 %30.11 in17.0 miNE (50°)4.5 mphPartly Cloudy
7:25 PM28.4 °F23.0 °F80 %30.09 in6.2 miEast (100°)3.5 mphMostly Cloudy
7:55 PM26.6 °F21.2 °F80 %30.12 in6.2 miNW (320°)6.9 mphMostly Cloudy
8:25 PM24.8 °F21.2 °F86 %30.12 in6.2 miVariable2.3 mphMostly Cloudy
8:55 PM24.8 °F21.2 °F86 %30.12 in6.2 miNE (50°)3.5 mphMostly Cloudy
9:25 PM26.6 °F21.2 °F80 %30.12 in6.2 miCalmMostly Cloudy
9:55 PM26.6 °F21.2 °F80 %30.12 in6.2 miVariable1.2 mphMostly Cloudy
10:00 PM26.0 °F22.0 °F80 %30.15 in11.0 miCalmOvercast
10:25 PM26.6 °F23.0 °F86 %30.12 in6.2 miVariable2.3 mphMostly Cloudy
10:55 PM26.6 °F23.0 °F86 %30.12 in6.2 miVariable1.2 mphMostly Cloudy
11:25 PM24.8 °F21.2 °F86 %30.12 in6.2 miCalmScattered Clouds
11:55 PM24.8 °F19.4 °F80 %30.12 in6.2 miWSW (240°)2.3 mphPartly Cloudy
Hourly data recorded from EHAM, located miles away from Haarlem, Netherlands







STORIES FROM OUR PARTNERS